TimePST,TemperatureF,Dew PointF,Humidity,Sea Level PressureIn,VisibilityMPH,Wind Direction,Wind SpeedMPH,Gust SpeedMPH,PrecipitationIn,Events,Conditions,WindDirDegrees,DateUTC
12:15 AM,32.0,32.0,100,29.68,5.0,WNW,3.5,-,0.02,,Overcast,300,2013-03-06 08:15:00
12:35 AM,32.0,32.0,100,29.67,2.5,Calm,Calm,-,0.06,,Overcast,0,2013-03-06 08:35:00
12:55 AM,32.0,32.0,100,29.66,2.5,West,4.6,-,0.08,,Mostly Cloudy,280,2013-03-06 08:55:00
1:15 AM,32.0,32.0,100,29.66,5.0,West,3.5,-,N/A,,Mostly Cloudy,280,2013-03-06 09:15:00
1:35 AM,32.0,32.0,100,29.66,5.0,WNW,4.6,-,0.03,,Overcast,300,2013-03-06 09:35:00
1:45 AM,33.8,32.0,93,29.66,5.0,NW,4.6,-,0.05,,Overcast,310,2013-03-06 09:45:00
2:15 AM,33.8,32.0,93,29.67,3.0,SSE,4.6,-,0.04,,Overcast,150,2013-03-06 10:15:00
2:35 AM,33.8,32.0,93,29.66,7.0,Calm,Calm,-,0.04,,Overcast,0,2013-03-06 10:35:00
2:55 AM,33.8,32.0,93,29.67,3.0,Calm,Calm,-,0.07,,Overcast,0,2013-03-06 10:55:00
3:15 AM,33.8,32.0,93,29.68,5.0,West,4.6,-,0.01,,Mostly Cloudy,270,2013-03-06 11:15:00
3:35 AM,32.0,32.0,100,29.67,10.0,Calm,Calm,-,0.01,,Overcast,0,2013-03-06 11:35:00
3:55 AM,32.0,32.0,100,29.67,10.0,Calm,Calm,-,0.01,,Overcast,0,2013-03-06 11:55:00
4:15 AM,32.0,32.0,100,29.67,9.0,Calm,Calm,-,0.01,,Overcast,0,2013-03-06 12:15:00
4:35 AM,32.0,32.0,100,29.67,4.0,Calm,Calm,-,0.02,,Mostly Cloudy,0,2013-03-06 12:35:00
4:55 AM,33.8,32.0,93,29.68,7.0,Calm,Calm,-,0.05,,Overcast,0,2013-03-06 12:55:00
5:15 AM,33.8,32.0,93,29.67,3.0,Calm,Calm,-,0.01,,Overcast,0,2013-03-06 13:15:00
5:35 AM,33.8,32.0,93,29.68,5.0,Calm,Calm,-,0.03,,Overcast,0,2013-03-06 13:35:00
5:55 AM,33.8,32.0,93,29.68,5.0,Calm,Calm,-,0.04,,Overcast,0,2013-03-06 13:55:00
6:15 AM,33.8,33.8,100,29.68,5.0,South,6.9,-,N/A,,Overcast,170,2013-03-06 14:15:00
6:35 AM,37.4,33.8,87,29.70,5.0,SSW,8.1,-,0.02,,Mostly Cloudy,200,2013-03-06 14:35:00
6:55 AM,35.6,33.8,93,29.72,5.0,SSW,9.2,17.3,0.03,,Mostly Cloudy,200,2013-03-06 14:55:00
7:15 AM,37.4,33.8,87,29.73,3.0,South,10.4,17.3,N/A,,Scattered Clouds,180,2013-03-06 15:15:00
7:35 AM,37.4,33.8,87,29.75,3.0,South,9.2,19.6,0.02,,Clear,170,2013-03-06 15:35:00
7:55 AM,37.4,33.8,87,29.77,5.0,South,10.4,-,0.03,,Scattered Clouds,190,2013-03-06 15:55:00
8:15 AM,37.4,33.8,87,29.79,4.0,South,16.1,-,N/A,,Partly Cloudy,180,2013-03-06 16:15:00
8:30 AM,37.4,33.8,87,29.79,5.0,South,16.1,20.7,N/A,,Clear,170,2013-03-06 16:30:00
8:55 AM,37.4,33.8,87,29.82,6.0,SSW,12.7,19.6,N/A,,Partly Cloudy,200,2013-03-06 16:55:00
9:15 AM,37.4,33.8,87,29.84,7.0,South,16.1,21.9,N/A,,Clear,180,2013-03-06 17:15:00
9:35 AM,37.4,33.8,87,29.85,9.0,South,11.5,-,N/A,,Clear,190,2013-03-06 17:35:00
9:55 AM,37.4,33.8,87,29.87,10.0,South,13.8,-,N/A,,Partly Cloudy,180,2013-03-06 17:55:00
10:15 AM,39.2,33.8,81,29.88,10.0,South,16.1,21.9,N/A,,Scattered Clouds,170,2013-03-06 18:15:00
10:55 AM,41.0,32.0,70,29.90,10.0,South,17.3,25.3,N/A,,Mostly Cloudy,170,2013-03-06 18:55:00
11:15 AM,41.0,33.8,76,29.92,10.0,SSE,12.7,21.9,N/A,,Mostly Cloudy,160,2013-03-06 19:15:00
11:35 AM,41.0,33.8,76,29.93,10.0,SSE,17.3,25.3,N/A,,Overcast,160,2013-03-06 19:35:00
11:55 AM,42.8,35.6,76,29.93,10.0,SSE,16.1,21.9,N/A,,Overcast,160,2013-03-06 19:55:00
12:15 PM,42.8,33.8,70,29.93,10.0,SSE,15.0,21.9,N/A,,Mostly Cloudy,160,2013-03-06 20:15:00
12:35 PM,41.0,33.8,76,29.94,9.0,South,13.8,24.2,N/A,,Partly Cloudy,170,2013-03-06 20:35:00
12:55 PM,39.2,33.8,81,29.95,5.0,SSW,9.2,20.7,N/A,,Partly Cloudy,200,2013-03-06 20:55:00
1:15 PM,39.2,35.6,87,29.96,9.0,South,4.6,-,N/A,,Partly Cloudy,190,2013-03-06 21:15:00
1:35 PM,41.0,35.6,81,29.96,5.0,South,11.5,-,N/A,,Scattered Clouds,180,2013-03-06 21:35:00
1:55 PM,41.0,35.6,81,29.96,9.0,SSW,4.6,-,N/A,,Partly Cloudy,210,2013-03-06 21:55:00
2:15 PM,41.0,32.0,70,29.96,10.0,SSW,11.5,17.3,N/A,,Partly Cloudy,210,2013-03-06 22:15:00
2:35 PM,41.0,32.0,70,29.97,10.0,SSW,9.2,17.3,N/A,,Partly Cloudy,210,2013-03-06 22:35:00
2:55 PM,42.8,32.0,66,29.96,10.0,South,8.1,-,N/A,,Partly Cloudy,170,2013-03-06 22:55:00
3:15 PM,44.6,32.0,61,29.96,10.0,SW,9.2,16.1,N/A,,Partly Cloudy,220,2013-03-06 23:15:00
3:35 PM,44.6,32.0,61,29.97,10.0,South,9.2,18.4,N/A,,Clear,190,2013-03-06 23:35:00
3:55 PM,44.6,32.0,61,29.97,10.0,SSW,6.9,-,N/A,,Partly Cloudy,210,2013-03-06 23:55:00
4:15 PM,42.8,32.0,66,29.96,10.0,South,6.9,-,N/A,,Clear,190,2013-03-07 00:15:00
4:35 PM,42.8,32.0,66,29.97,10.0,SSW,9.2,-,N/A,,Scattered Clouds,200,2013-03-07 00:35:00
4:55 PM,41.0,32.0,70,29.96,10.0,South,12.7,18.4,N/A,,Partly Cloudy,180,2013-03-07 00:55:00
5:15 PM,41.0,32.0,70,29.96,10.0,SSW,9.2,-,N/A,,Scattered Clouds,210,2013-03-07 01:15:00
5:35 PM,41.0,32.0,70,29.97,10.0,South,5.8,-,N/A,,Partly Cloudy,190,2013-03-07 01:35:00
5:55 PM,39.2,32.0,75,29.98,10.0,SSW,6.9,-,N/A,,Partly Cloudy,210,2013-03-07 01:55:00
6:15 PM,39.2,32.0,75,29.98,10.0,Calm,Calm,-,N/A,,Partly Cloudy,0,2013-03-07 02:15:00
6:35 PM,37.4,33.8,87,29.99,10.0,Calm,Calm,-,N/A,,Partly Cloudy,0,2013-03-07 02:35:00
6:55 PM,35.6,32.0,87,29.99,10.0,West,3.5,-,N/A,,Mostly Cloudy,280,2013-03-07 02:55:00
7:15 PM,35.6,32.0,87,29.99,10.0,Calm,Calm,-,N/A,,Mostly Cloudy,0,2013-03-07 03:15:00
7:35 PM,33.8,32.0,93,30.00,10.0,Calm,Calm,-,N/A,,Scattered Clouds,0,2013-03-07 03:35:00
7:55 PM,35.6,32.0,87,30.00,10.0,SSE,3.5,-,N/A,,Mostly Cloudy,160,2013-03-07 03:55:00
8:15 PM,33.8,32.0,93,30.00,10.0,West,4.6,-,N/A,,Mostly Cloudy,260,2013-03-07 04:15:00
8:35 PM,32.0,32.0,100,30.00,10.0,West,4.6,-,N/A,,Mostly Cloudy,260,2013-03-07 04:35:00
8:55 PM,32.0,32.0,100,30.01,10.0,West,4.6,-,N/A,,Overcast,270,2013-03-07 04:55:00
9:15 PM,33.8,32.0,93,30.01,10.0,WNW,3.5,-,N/A,,Mostly Cloudy,300,2013-03-07 05:15:00
9:35 PM,32.0,32.0,100,30.02,10.0,West,4.6,-,N/A,,Mostly Cloudy,270,2013-03-07 05:35:00
9:55 PM,32.0,32.0,100,30.02,10.0,West,3.5,-,N/A,,Mostly Cloudy,270,2013-03-07 05:55:00
10:15 PM,32.0,32.0,100,30.02,10.0,West,3.5,-,N/A,,Partly Cloudy,280,2013-03-07 06:15:00
10:35 PM,32.0,32.0,100,30.02,10.0,Calm,Calm,-,N/A,,Mostly Cloudy,0,2013-03-07 06:35:00
11:15 PM,32.0,32.0,100,30.02,9.0,West,3.5,-,N/A,,Mostly Cloudy,270,2013-03-07 07:15:00
11:35 PM,32.0,32.0,100,30.02,10.0,Calm,Calm,-,N/A,,Overcast,0,2013-03-07 07:35:00
11:55 PM,32.0,32.0,100,30.02,10.0,West,3.5,-,N/A,,Overcast,270,2013-03-07 07:55:00